{"data":{"norad_id":49743,"intl_designator":"2021-115V","name":"STARLINK-3239","alt_names":[],"object_type":"PAYLOAD","status":"ACTIVE","operator":null,"country":"US","launch_date":"2021-12-02","launch_site_code":"AFETR","launch_vehicle":null,"mission":null,"orbit_class":"UNKNOWN","rcs_meters":null,"size_class":null,"mass_kg":null,"dimensions":null,"purposes":["comms"],"wikipedia_slug":null,"has_3d_model":false,"image_url":null,"decayed_at":null,"tle_current":{"epoch":"2026-09-19T18:36:44.252352Z","epoch_age_seconds":107919,"freshness":"FRESH","line1":"1 49743U 21115V   26262.77551218  .00001034  00000+0  45069-4 0  9996","line2":"2 49743  53.1618 343.2219 0001025  52.4148 307.6947 15.31705707265037","mean_motion":15.31705707,"eccentricity":0.0001025,"inclination_deg":53.1618,"raan_deg":343.2219,"arg_perigee_deg":52.4148,"mean_anomaly_deg":307.6947,"bstar":4.5069e-5,"rev_number":26503,"period_min":94.012837676265,"perigee_km":470.02097486018,"apogee_km":471.42499115669,"semimajor_km":6848.8599830084,"source":"CELESTRAK","updated_at":"2026-09-20T09:00:39.406824Z"}}}